Weather in Pogorelka

Russia / Kurgan Oblast     56°04′18″N   63°43′37″E
temp.,
°C
wind,
m/s
gust,
m/s
humid.,
%
clouds,
%
prec.,
mm/h
press.,
hPa
HPBL,
m
18 august, thu
thu1823:00+12nne265827 0.0 1022170
02:00+7n34765 0.0 102253
05:00+5n3790100 0.0 1024137
08:00+9nne46655 0.0 1025439
11:00+14nne554498 0.0 10251860
14:00+16nne553682 0.0 10242341
17:00+15n664077 0.0 10251812
20:00+12ne3650100 0.0 1026298
19 august, fri
fri1923:00+10nne486669 0.0 1028405
02:00+5nne349313 0.0 102967
05:00+4n22945 0.0 103028
08:00+9nnw3477100 0.0 1030228
11:00+14nnw465294 0.0 10301310
14:00+17nnw575295 0.0 10281496
17:00+18nw3750100 0.0 1026750
20:00+16nw355670 0.0 102584
20 august, sat
sat2023:00+13nw486568 0.0 1025127
02:00+14nw41066100 0.0 1024186
05:00+11nnw3478100 0.0 102569
08:00+16n3568100 0.0 1025264
11:00+21nnw465976 0.2 1024859
14:00+25n5850100 1.0 10222010
17:00+19ene2484100 4.1 1022132
20:00+16nnw0196100 3.4 102371
21 august, sun
sun2123:00+16ne2599100 8.3 1024264
02:00+15nne4895100 0.1 1024337
05:00+11n389851 0.1 1026197
08:00+12nne589399 0.0 1027400
11:00+15nne576995 0.0 1027961
14:00+17ne565618 0.0 10271222
17:00+20nne56426 0.0 10271646
20:00+15ne33595 0.0 102821
22 august, mon
mon2223:00+12ne22665 0.0 102810
02:00+10ne11695 0.0 102910
05:00+10n22725 0.0 102910
08:00+14ne23585 0.0 1030190
11:00+19ene23415 0.0 1031881
14:00+21ne33325 0.0 10301423
17:00+22ne333320 0.0 10301433
20:00+16e224920 0.0 103011